Location: Ajisawe
(8.4333°N, 4.3833°E)
Time: 21:41:21
(UTC+00:00)

Vanguard 2 Rocket - Pass Details

Date: 28 April 2021
Orbit: 554 x 3326 km, 32.9° (Epoch: 16 May)

Event Time Altitude Azimuth Distance (km) Brightness Sun altitude
Rises 08:42:32 0° 248° (WSW) 3,901 9.7 46.2°
Reaches altitude 10° 08:44:46 10° 251° (WSW) 3,199 9.4 46.7°
Maximum altitude 08:53:01 64° 332° (NNW) 1,964 9.2 48.7°
Drops below altitude 10° 09:07:57 10° 50° (NE) 5,503 11.6 52.3°
Sets 09:13:10 0° 54° (NE) 6,853 11.9 53.6°
